Location: Del Oro Observatory
(38.3044°N, 104.8119°W)
Time: 20:17:44
(UTC-06:00)

Iridium 35 - Visible Passes

Search period start: 01 August 2015 00:00
Search period end: 11 August 2015 00:00
Orbit: 776 x 779 km, 86.4° (Epoch: 01 August)

Date Brightness Start Highest point End Pass type
(mag) Time Alt. Az. Time Alt. Az. Time Alt. Az.
01 Aug 7.2 21:39:33 10° SW 21:43:57 26° WNW 21:48:16 10° NNW visible
02 Aug 6.0 21:05:11 10° SSW 21:10:13 49° W 21:15:17 10° N visible
03 Aug 5.1 20:31:26 10° S 20:36:39 88° E 20:41:54 10° N visible
04 Aug 7.8 21:40:36 10° WSW 21:44:16 18° WNW 21:47:44 10° NNW visible
05 Aug 6.8 21:05:43 10° SW 21:10:26 34° W 21:15:07 10° NNW visible
06 Aug 5.6 20:31:36 10° SSW 20:36:46 64° W 20:41:57 10° N visible
07 Aug 8.1 21:42:20 10° W 21:44:39 12° WNW 21:46:38 10° NW visible
08 Aug 7.6 21:06:32 10° SW 21:10:42 23° WNW 21:14:46 10° NNW visible
09 Aug 6.4 20:31:59 10° SSW 20:36:56 43° W 20:41:53 10° NNW visible
